Regional Weather Roundup
Issued by NWS Cleveland, OH

Home | Current Version | Previous Version | Text Only | Print | Product List | Glossary On
Versions: 1 2 3 4 5 6 7 8 9 10 11 12 13 14 15 16 17 18 19 20 21 22 23 24 25 26 27 28 29 30 31 32 33 34 35 36 37 38 39 40 41 42 43 44 45 46 47 48 49 50
000
ASUS41 KCLE 270110
RWRCLE
OHIO REGIONAL WEATHER ROUNDUP
NATIONAL WEATHER SERVICE CLEVELAND, OH
800 PM EST MON JAN 26 2015

NOTE: "FAIR" INDICATES FEW OR NO CLOUDS BELOW 12,000 FEET WITH NO
SIGNIFICANT WEATHER AND/OR OBSTRUCTIONS TO VISIBILITY.

OHZ001>008-015>018-024>027-034-035-043-044-270200-
   NORTHWEST OHIO

CITY           SKY/WX    TMP DP  RH WIND       PRES   REMARKS
DEFIANCE       FAIR      14   7  73 CALM      29.94R
FINDLAY        PTCLDY     9   6  88 CALM      29.93S
TOLEDO EXPRESS CLEAR     16   9  74 SE3       29.94R
TOLEDO EXEC    PTCLDY    15   8  73 CALM      29.96S
LIMA           MOCLDY     9   5  84 SE3       29.92S
$$

OHZ009>014-019>023-028>033-038-089-270200-
   NORTHEAST OHIO

CITY           SKY/WX    TMP DP  RH WIND       PRES   REMARKS
CLE-HOPKINS    FLURRIES  20  15  81 N7        29.94S WCI  11
CLE-LAKEFRONT  CLOUDY    22  15  75 N9        29.93R WCI  12
CUY CO. ARPT   CLOUDY    23  18  80 N9        29.91R WCI  13
LORAIN-ELYRIA  CLOUDY    19  11  70 N5        29.93S WCI  12
ASHTABULA      CLOUDY    21  15  78 N5        29.88R WCI  15
AKRON-CANTON   CLOUDY    20  14  77 N10       29.87R WCI   9
WOOSTER        CLOUDY    18  14  84 N8        29.89R WCI   8
MANSFIELD      CLOUDY    12  10  92 NW5       29.89S WCI   4
YOUNGSTOWN     CLOUDY    19  15  84 N9        29.85R WCI   8
$$

OHZ042-051>053-060>062-070>072-077>081-270200-
  SOUTHWEST OHIO

CITY           SKY/WX    TMP DP  RH WIND       PRES   REMARKS
CINC-COVINGTON CLOUDY    27  18  69 NW3       29.93R
CINC-LUNKEN    CLEAR     22  15  75 NE5       29.97R WCI  16
HAMILTON       CLEAR     18  15  88 CALM      29.96R
DAYTON         MOCLDY    14   9  80 CALM      29.94R
WRIGHT-PAT AFB CLOUDY    13  10  86 CALM      29.94R
DAYTON GENERAL PTCLDY    17  12  80 N3        29.92S
WILMINGTON     CLEAR     15   9  76 N5        29.92S WCI   8
$$

OHZ036-037-039>041-045>050-054>059-063>069-073>076-082>088-270200-
  CENTRAL AND SOUTHEAST OHIO

CITY           SKY/WX    TMP DP  RH WIND       PRES   REMARKS
COLUMBUS       MOCLDY    16   9  73 NW7       29.94R WCI   6
OSU AIRPORT    PTCLDY    13   9  84 NW5       29.94R WCI   5
BOLTON FIELD   CLEAR     13  10  85 MISG      29.94S
RICKENBACK AFB MOCLDY    16  11  82 NW5       29.95R WCI   9
NEWARK         FAIR      14   9  80 NW6       29.92R WCI   5
MARION         PTCLDY     8   4  83 CALM      29.93S
LANCASTER      CLEAR      9   6  88 NW3       29.94R
ZANESVILLE     CLOUDY    20  14  77 NW8       29.91R WCI  10
NEW PHILLY     CLOUDY    22  16  78 NW8       29.89R WCI  12
$$


USA.gov is the U.S. government's official web portal to all federal, state and local government web resources and services.